QPF
0.01 0.01 0.00 0.00 0.01 0.01 0.02 0.04 0.06 0.06 0.03 0.01 0.00 0.00 0.00 0.00 0.00 0.00 0.01 0.02 0.03 0.02 0.02 0.01 0.01 0.00 0.00 0.00 0.00 0.00 0.00 0.00 0.00 0.00 0.00 0.00 0.01 0.03
0.01 0.01 0.01 0.01 0.01 0.01 0.01 0.02 0.04 0.07 0.06 0.02 0.00 0.00 0.00 0.00 0.00 0.01 0.02 0.04 0.05 0.05 0.03 0.02 0.01 0.00 0.00 0.00 0.00 0.00 0.00 0.00 0.00 0.00 0.00 0.00 0.02 0.06
0.00 0.00 0.00 0.01 0.01 0.01 0.02 0.03 0.03 0.05 0.05 0.03 0.00 0.00 0.00 0.00 0.00 0.01 0.04 0.05 0.06 0.07 0.04 0.02 0.02 0.01 0.00 0.00 0.00 0.00 0.00 0.00 0.00 0.00 0.00 0.01 0.03 0.08
0.00 0.00 0.00 0.01 0.01 0.02 0.02 0.03 0.03 0.03 0.04 0.03 0.01 0.00 0.00 0.00 0.01 0.03 0.06 0.08 0.07 0.08 0.05 0.04 0.02 0.01 0.01 0.00 0.00 0.00 0.00 0.00 0.00 0.00 0.01 0.03 0.07 0.13
0.00 0.00 0.00 0.01 0.01 0.02 0.02 0.02 0.02 0.02 0.03 0.04 0.02 0.01 0.00 0.01 0.03 0.06 0.06 0.07 0.06 0.06 0.05 0.04 0.03 0.01 0.01 0.01 0.01 0.00 0.00 0.01 0.01 0.01 0.03 0.06 0.11 0.15
0.00 0.00 0.01 0.01 0.02 0.02 0.01 0.01 0.01 0.02 0.02 0.03 0.03 0.01 0.01 0.03 0.06 0.09 0.08 0.05 0.04 0.03 0.04 0.03 0.03 0.03 0.06 0.07 0.05 0.03 0.02 0.02 0.02 0.04 0.07 0.11 0.15 0.18
0.00 0.01 0.01 0.02 0.03 0.02 0.01 0.01 0.02 0.04 0.05 0.04 0.04 0.03 0.03 0.05 0.06 0.06 0.05 0.04 0.02 0.02 0.03 0.03 0.05 0.16 0.23 0.22 0.19 0.11 0.06 0.06 0.07 0.09 0.13 0.16 0.19 0.20
0.00 0.00 0.00 0.01 0.00 0.00 0.01 0.01 0.04 0.07 0.08 0.07 0.05 0.04 0.04 0.05 0.05 0.05 0.04 0.03 0.04 0.03 0.02 0.05 0.16 0.34 0.44 0.50 0.50 0.33 0.15 0.11 0.13 0.15 0.18 0.21 0.22 0.22
0.00 0.00 0.01 0.00 0.00 0.00 0.00 0.01 0.04 0.08 0.10 0.08 0.05 0.03 0.04 0.04 0.05 0.05 0.04 0.03 0.05 0.03 0.02 0.09 0.26 0.42 0.61 0.87 0.89 0.58 0.32 0.22 0.22 0.24 0.27 0.29 0.30 0.27
0.00 0.00 0.00 0.00 0.00 0.00 0.01 0.02 0.05 0.07 0.06 0.04 0.03 0.03 0.04 0.04 0.04 0.03 0.02 0.03 0.03 0.02 0.03 0.12 0.30 0.52 0.70 0.94 1.01 0.72 0.51 0.42 0.40 0.39 0.40 0.40 0.39 0.34
0.00 0.00 0.00 0.00 0.00 0.01 0.02 0.05 0.09 0.11 0.07 0.04 0.05 0.07 0.08 0.07 0.04 0.03 0.03 0.03 0.02 0.02 0.03 0.12 0.28 0.45 0.60 0.76 0.85 0.75 0.64 0.59 0.56 0.52 0.47 0.42 0.37 0.31
0.00 0.00 0.00 0.01 0.01 0.02 0.04 0.09 0.15 0.17 0.10 0.05 0.07 0.10 0.09 0.08 0.08 0.07 0.05 0.04 0.03 0.02 0.03 0.09 0.19 0.28 0.45 0.61 0.60 0.56 0.55 0.58 0.57 0.53 0.46 0.37 0.26 0.16
0.00 0.01 0.01 0.03 0.02 0.04 0.09 0.14 0.20 0.22 0.14 0.07 0.05 0.07 0.07 0.06 0.07 0.07 0.05 0.04 0.02 0.01 0.02 0.06 0.13 0.17 0.24 0.41 0.48 0.45 0.40 0.40 0.41 0.42 0.38 0.30 0.21 0.12
0.02 0.03 0.04 0.04 0.04 0.08 0.14 0.19 0.24 0.24 0.15 0.07 0.03 0.02 0.03 0.04 0.05 0.05 0.03 0.01 0.00 0.00 0.02 0.04 0.09 0.13 0.14 0.19 0.29 0.32 0.28 0.24 0.22 0.21 0.20 0.18 0.15 0.12
0.04 0.05 0.05 0.04 0.07 0.13 0.19 0.23 0.25 0.23 0.15 0.08 0.04 0.03 0.02 0.02 0.02 0.02 0.01 0.00 0.00 0.01 0.01 0.03 0.06 0.11 0.11 0.10 0.13 0.13 0.13 0.12 0.09 0.08 0.07 0.06 0.05 0.05
0.02 0.03 0.04 0.06 0.11 0.18 0.21 0.23 0.24 0.23 0.17 0.10 0.06 0.04 0.03 0.03 0.02 0.01 0.01 0.01 0.01 0.02 0.02 0.03 0.04 0.06 0.08 0.06 0.06 0.05 0.05 0.05 0.05 0.04 0.04 0.02 0.01 0.01
0.02 0.03 0.04 0.08 0.14 0.19 0.21 0.21 0.21 0.21 0.17 0.10 0.06 0.05 0.05 0.03 0.03 0.02 0.02 0.02 0.02 0.02 0.02 0.02 0.03 0.03 0.03 0.04 0.04 0.04 0.04 0.03 0.03 0.03 0.02 0.01 0.00 0.00
0.03 0.04 0.07 0.12 0.17 0.20 0.22 0.21 0.20 0.18 0.15 0.10 0.07 0.06 0.05 0.04 0.04 0.03 0.02 0.02 0.02 0.02 0.01 0.01 0.02 0.02 0.03 0.03 0.02 0.02 0.02 0.01 0.01 0.01 0.00 0.00 0.00 0.00
0.03 0.06 0.10 0.14 0.17 0.18 0.19 0.19 0.18 0.16 0.13 0.10 0.07 0.05 0.05 0.04 0.03 0.03 0.02 0.01 0.01 0.01 0.01 0.00 0.00 0.00 0.01 0.02 0.02 0.00 0.00 0.00 0.00 0.00 0.00 0.00 0.00 0.00
0.04 0.08 0.11 0.13 0.14 0.15 0.15 0.16 0.16 0.14 0.11 0.08 0.07 0.06 0.04 0.03 0.03 0.02 0.01 0.01 0.00 0.00 0.00 0.00 0.00 0.00 0.00 0.00 0.01 0.00 0.00 0.00 0.00 0.00 0.00 0.00 0.00 0.00
0.05 0.08 0.11 0.12 0.11 0.11 0.11 0.11 0.11 0.10 0.08 0.07 0.06 0.05 0.04 0.03 0.02 0.01 0.01 0.00 0.00 0.00 0.01 0.01 0.00 0.00 0.00 0.00 0.00 0.00 0.00 0.00 0.00 0.00 0.00 0.00 0.00 0.00
0.05 0.08 0.10 0.10 0.08 0.07 0.06 0.06 0.05 0.05 0.05 0.04 0.04 0.04 0.03 0.02 0.01 0.01 0.01 0.01 0.01 0.00 0.00 0.00 0.00 0.00 0.00 0.00 0.00 0.00 0.00 0.00 0.00 0.00 0.00 0.00 0.00 0.00
0.03 0.05 0.07 0.08 0.07 0.05 0.04 0.03 0.03 0.03 0.03 0.03 0.03 0.02 0.02 0.02 0.01 0.01 0.01 0.00 0.00 0.00 0.00 0.00 0.00 0.00 0.00 0.00 0.00 0.00 0.00 0.00 0.00 0.00 0.00 0.00 0.00 0.00
MSLP
1017.56 1017.14 1016.69 1016.21 1015.72 1015.22 1014.70 1014.19 1013.67 1013.15 1012.62 1012.09 1011.56 1011.03 1010.52 1010.04 1009.61 1009.25 1008.98 1008.81 1008.73 1008.74 1008.82 1008.92 1009.03 1009.12 1009.18 1009.21 1009.22 1009.23 1009.26 1009.31 1009.38 1009.47 1009.56 1009.61 1009.60 1009.54
1017.11 1016.62 1016.11 1015.60 1015.08 1014.56 1014.06 1013.55 1013.05 1012.55 1012.03 1011.50 1010.97 1010.44 1009.93 1009.47 1009.07 1008.77 1008.57 1008.48 1008.49 1008.56 1008.67 1008.77 1008.85 1008.86 1008.82 1008.73 1008.61 1008.50 1008.43 1008.42 1008.46 1008.57 1008.70 1008.82 1008.91 1008.94
1016.66 1016.11 1015.55 1014.99 1014.45 1013.93 1013.42 1012.92 1012.43 1011.93 1011.42 1010.90 1010.38 1009.86 1009.38 1008.96 1008.62 1008.39 1008.27 1008.26 1008.32 1008.42 1008.52 1008.57 1008.53 1008.40 1008.18 1007.89 1007.58 1007.30 1007.10 1007.00 1007.03 1007.17 1007.38 1007.64 1007.89 1008.09
1016.23 1015.64 1015.04 1014.45 1013.88 1013.34 1012.82 1012.31 1011.81 1011.31 1010.80 1010.29 1009.78 1009.30 1008.87 1008.51 1008.26 1008.12 1008.08 1008.14 1008.24 1008.33 1008.37 1008.30 1008.09 1007.75 1007.28 1006.73 1006.18 1005.69 1005.32 1005.14 1005.14 1005.33 1005.67 1006.11 1006.58 1007.04
1015.86 1015.23 1014.60 1013.97 1013.37 1012.79 1012.24 1011.70 1011.18 1010.66 1010.14 1009.64 1009.15 1008.72 1008.36 1008.09 1007.94 1007.90 1007.96 1008.08 1008.21 1008.28 1008.22 1008.01 1007.59 1006.99 1006.24 1005.40 1004.58 1003.85 1003.32 1003.03 1003.02 1003.28 1003.77 1004.42 1005.16 1005.91
1015.54 1014.88 1014.21 1013.54 1012.90 1012.27 1011.66 1011.08 1010.51 1009.96 1009.42 1008.91 1008.46 1008.08 1007.81 1007.65 1007.62 1007.70 1007.87 1008.06 1008.22 1008.26 1008.11 1007.74 1007.12 1006.27 1005.24 1004.13 1003.04 1002.10 1001.40 1001.02 1001.01 1001.34 1001.97 1002.85 1003.86 1004.92
1015.23 1014.54 1013.83 1013.12 1012.42 1011.73 1011.06 1010.41 1009.78 1009.18 1008.61 1008.11 1007.69 1007.38 1007.21 1007.17 1007.27 1007.48 1007.77 1008.05 1008.24 1008.27 1008.07 1007.58 1006.80 1005.75 1004.51 1003.18 1001.89 1000.77 999.95 999.51 999.49 999.89 1000.66 1001.73 1002.98 1004.32
1014.91 1014.18 1013.43 1012.67 1011.90 1011.14 1010.40 1009.68 1008.99 1008.34 1007.76 1007.27 1006.89 1006.66 1006.58 1006.67 1006.91 1007.26 1007.66 1008.04 1008.30 1008.36 1008.14 1007.60 1006.73 1005.58 1004.22 1002.77 1001.37 1000.17 999.29 998.82 998.82 999.27 1000.14 1001.35 1002.77 1004.31
1014.55 1013.77 1012.97 1012.16 1011.33 1010.51 1009.71 1008.93 1008.19 1007.52 1006.93 1006.46 1006.14 1005.99 1006.02 1006.23 1006.60 1007.07 1007.59 1008.07 1008.42 1008.53 1008.35 1007.83 1006.98 1005.84 1004.48 1003.04 1001.65 1000.46 999.60 999.15 999.18 999.67 1000.59 1001.86 1003.37 1005.00
1014.13 1013.31 1012.46 1011.60 1010.73 1009.87 1009.02 1008.22 1007.47 1006.80 1006.24 1005.82 1005.56 1005.50 1005.64 1005.96 1006.43 1007.02 1007.63 1008.20 1008.63 1008.82 1008.73 1008.31 1007.56 1006.54 1005.31 1004.00 1002.74 1001.66 1000.90 1000.53 1000.60 1001.11 1002.03 1003.29 1004.78 1006.39
1013.67 1012.80 1011.92 1011.03 1010.14 1009.27 1008.42 1007.63 1006.91 1006.28 1005.79 1005.45 1005.29 1005.32 1005.55 1005.96 1006.52 1007.17 1007.85 1008.47 1008.96 1009.24 1009.25 1008.97 1008.40 1007.57 1006.57 1005.49 1004.46 1003.59 1002.99 1002.73 1002.86 1003.39 1004.27 1005.45 1006.83 1008.32
1013.21 1012.31 1011.41 1010.51 1009.63 1008.77 1007.97 1007.23 1006.58 1006.06 1005.66 1005.43 1005.38 1005.52 1005.83 1006.31 1006.90 1007.58 1008.27 1008.91 1009.43 1009.76 1009.87 1009.74 1009.37 1008.78 1008.06 1007.28 1006.54 1005.93 1005.54 1005.43 1005.64 1006.16 1006.97 1008.02 1009.23 1010.53
1012.81 1011.89 1010.98 1010.09 1009.24 1008.44 1007.71 1007.07 1006.54 1006.14 1005.89 1005.79 1005.86 1006.10 1006.48 1006.99 1007.59 1008.24 1008.90 1009.50 1010.00 1010.35 1010.53 1010.52 1010.34 1010.01 1009.58 1009.11 1008.68 1008.35 1008.20 1008.25 1008.53 1009.05 1009.78 1010.67 1011.69 1012.77
1012.50 1011.58 1010.68 1009.82 1009.02 1008.30 1007.67 1007.15 1006.76 1006.52 1006.42 1006.47 1006.67 1007.00 1007.44 1007.96 1008.53 1009.12 1009.68 1010.20 1010.63 1010.95 1011.15 1011.23 1011.21 1011.09 1010.93 1010.76 1010.63 1010.58 1010.65 1010.86 1011.22 1011.73 1012.38 1013.14 1013.96 1014.83
1012.33 1011.41 1010.54 1009.72 1008.98 1008.35 1007.83 1007.45 1007.21 1007.12 1007.18 1007.37 1007.69 1008.10 1008.57 1009.08 1009.60 1010.10 1010.55 1010.95 1011.27 1011.52 1011.71 1011.83 1011.92 1011.97 1012.03 1012.11 1012.23 1012.42 1012.69 1013.04 1013.48 1014.00 1014.58 1015.22 1015.89 1016.57
1012.30 1011.41 1010.57 1009.81 1009.14 1008.59 1008.17 1007.91 1007.80 1007.85 1008.05 1008.37 1008.78 1009.26 1009.75 1010.24 1010.69 1011.09 1011.42 1011.69 1011.89 1012.06 1012.20 1012.33 1012.48 1012.66 1012.87 1013.14 1013.47 1013.85 1014.27 1014.74 1015.25 1015.77 1016.31 1016.86 1017.41 1017.96
1012.43 1011.58 1010.79 1010.08 1009.47 1009.00 1008.66 1008.50 1008.49 1008.65 1008.95 1009.35 1009.84 1010.35 1010.85 1011.31 1011.70 1012.00 1012.23 1012.38 1012.48 1012.56 1012.66 1012.78 1012.96 1013.22 1013.54 1013.94 1014.41 1014.92 1015.46 1016.02 1016.57 1017.11 1017.62 1018.12 1018.59 1019.06
1012.71 1011.93 1011.19 1010.54 1009.98 1009.56 1009.28 1009.18 1009.23 1009.45 1009.80 1010.26 1010.77 1011.30 1011.79 1012.22 1012.55 1012.79 1012.94 1013.01 1013.05 1013.08 1013.14 1013.26 1013.46 1013.77 1014.16 1014.65 1015.20 1015.79 1016.40 1017.00 1017.58 1018.13 1018.63 1019.09 1019.53 1019.95
1013.14 1012.43 1011.76 1011.16 1010.65 1010.26 1010.02 1009.93 1010.01 1010.24 1010.60 1011.06 1011.57 1012.08 1012.55 1012.95 1013.25 1013.45 1013.56 1013.60 1013.61 1013.63 1013.69 1013.83 1014.07 1014.41 1014.86 1015.39 1015.98 1016.61 1017.25 1017.87 1018.45 1018.99 1019.48 1019.92 1020.34 1020.74
1013.72 1013.09 1012.49 1011.94 1011.46 1011.10 1010.86 1010.77 1010.83 1011.04 1011.37 1011.78 1012.25 1012.72 1013.16 1013.53 1013.81 1014.00 1014.11 1014.17 1014.20 1014.25 1014.36 1014.54 1014.82 1015.20 1015.68 1016.24 1016.85 1017.48 1018.11 1018.72 1019.28 1019.79 1020.26 1020.69 1021.09 1021.48
1014.42 1013.87 1013.34 1012.84 1012.40 1012.04 1011.80 1011.68 1011.70 1011.85 1012.11 1012.47 1012.87 1013.28 1013.67 1014.01 1014.28 1014.48 1014.62 1014.73 1014.82 1014.94 1015.11 1015.36 1015.70 1016.12 1016.63 1017.20 1017.80 1018.42 1019.02 1019.59 1020.11 1020.59 1021.03 1021.43 1021.82 1022.19
1015.23 1014.75 1014.28 1013.82 1013.41 1013.06 1012.79 1012.64 1012.60 1012.68 1012.87 1013.13 1013.45 1013.79 1014.13 1014.44 1014.70 1014.92 1015.11 1015.28 1015.46 1015.66 1015.92 1016.25 1016.65 1017.11 1017.64 1018.21 1018.80 1019.38 1019.93 1020.46 1020.93 1021.37 1021.76 1022.14 1022.49 1022.85
1016.11 1015.69 1015.26 1014.83 1014.43 1014.08 1013.80 1013.61 1013.51 1013.51 1013.61 1013.79 1014.02 1014.29 1014.57 1014.84 1015.10 1015.34 1015.58 1015.81 1016.07 1016.36 1016.71 1017.11 1017.57 1018.07 1018.62 1019.18 1019.74 1020.28 1020.79 1021.25 1021.68 1022.07 1022.43 1022.77 1023.10 1023.42
Thickness
5469 5467 5465 5464 5463 5461 5459 5458 5459 5466 5472 5471 5471 5474 5476 5479 5482 5485 5487 5489 5491 5492 5493 5493 5493 5494 5495 5497 5501 5505 5511 5518 5526 5534 5544 5557 5571 5584
5459 5457 5456 5455 5455 5455 5455 5455 5453 5456 5464 5466 5466 5468 5471 5474 5477 5480 5482 5484 5485 5485 5484 5483 5482 5482 5483 5485 5489 5493 5500 5508 5516 5525 5535 5547 5562 5576
5449 5448 5447 5448 5448 5449 5450 5451 5452 5452 5458 5463 5463 5465 5467 5470 5473 5476 5478 5479 5480 5479 5477 5475 5473 5473 5475 5477 5481 5486 5493 5500 5509 5519 5528 5540 5554 5569
5440 5439 5439 5441 5442 5443 5445 5447 5448 5449 5452 5458 5460 5462 5465 5468 5470 5472 5474 5475 5474 5472 5470 5468 5468 5469 5471 5474 5478 5484 5490 5497 5506 5515 5525 5537 5550 5561
5432 5431 5432 5433 5435 5438 5440 5443 5445 5447 5449 5453 5459 5460 5463 5466 5468 5469 5469 5468 5468 5466 5464 5464 5464 5466 5468 5472 5478 5485 5493 5500 5508 5516 5524 5532 5544 5557
5425 5424 5425 5426 5429 5433 5437 5439 5442 5445 5448 5452 5457 5460 5463 5465 5465 5465 5463 5461 5460 5460 5459 5459 5460 5462 5466 5473 5482 5492 5502 5509 5515 5520 5525 5531 5541 5554
5418 5418 5419 5422 5426 5429 5433 5437 5440 5444 5449 5453 5458 5460 5463 5464 5464 5463 5460 5456 5455 5454 5454 5455 5456 5459 5467 5478 5492 5506 5517 5523 5525 5525 5526 5530 5540 5553
5411 5412 5413 5417 5421 5424 5429 5435 5440 5446 5452 5456 5460 5462 5464 5464 5462 5460 5457 5455 5453 5450 5449 5450 5451 5457 5467 5483 5502 5518 5528 5530 5528 5526 5526 5530 5539 5549
5404 5405 5409 5413 5416 5420 5427 5435 5443 5450 5456 5460 5463 5465 5464 5464 5461 5458 5455 5453 5449 5446 5446 5445 5446 5451 5461 5479 5502 5518 5525 5526 5524 5523 5524 5528 5534 5542
5399 5400 5404 5408 5413 5417 5425 5435 5446 5455 5462 5467 5468 5466 5465 5463 5460 5457 5453 5448 5444 5443 5443 5440 5439 5444 5454 5468 5485 5502 5509 5512 5513 5514 5517 5521 5526 5532
5395 5399 5401 5405 5410 5415 5424 5436 5447 5456 5463 5466 5466 5464 5462 5460 5457 5454 5451 5449 5444 5440 5439 5437 5436 5440 5448 5457 5466 5478 5487 5493 5497 5502 5508 5514 5519 5523
5391 5396 5399 5403 5408 5416 5425 5435 5446 5454 5459 5460 5460 5458 5455 5453 5452 5453 5452 5450 5446 5440 5437 5437 5437 5439 5444 5449 5455 5462 5468 5474 5481 5489 5497 5505 5514 5516
5387 5392 5396 5401 5408 5417 5426 5436 5445 5450 5453 5455 5453 5451 5449 5448 5447 5447 5447 5447 5446 5441 5439 5439 5438 5441 5445 5446 5449 5453 5460 5466 5472 5478 5485 5493 5500 5506
5384 5388 5394 5401 5409 5419 5428 5437 5444 5448 5450 5450 5448 5446 5444 5442 5441 5442 5443 5443 5443 5441 5439 5439 5440 5442 5447 5450 5447 5447 5453 5459 5466 5471 5476 5480 5485 5488
5382 5388 5395 5402 5411 5421 5429 5437 5442 5445 5446 5446 5444 5441 5438 5437 5436 5436 5437 5437 5437 5437 5438 5439 5441 5443 5446 5449 5447 5448 5452 5453 5458 5464 5468 5472 5474 5476
5382 5389 5396 5404 5412 5420 5428 5434 5438 5440 5442 5441 5437 5434 5433 5432 5431 5432 5432 5433 5434 5434 5435 5437 5439 5442 5445 5446 5450 5450 5453 5454 5453 5459 5463 5464 5465 5466
5381 5389 5396 5403 5411 5418 5425 5430 5433 5435 5436 5435 5433 5430 5429 5428 5427 5427 5428 5430 5432 5433 5433 5435 5438 5440 5443 5447 5450 5450 5451 5452 5453 5455 5458 5459 5457 5458
5382 5388 5393 5400 5407 5414 5420 5425 5429 5431 5431 5431 5429 5428 5426 5425 5424 5423 5425 5427 5429 5431 5433 5435 5439 5442 5443 5442 5444 5446 5446 5445 5446 5447 5451 5453 5450 5449
5382 5386 5391 5397 5403 5410 5416 5421 5424 5426 5427 5427 5427 5426 5424 5422 5422 5422 5423 5425 5427 5430 5432 5435 5438 5443 5446 5443 5435 5439 5441 5440 5441 5441 5441 5443 5442 5441
5380 5385 5389 5394 5400 5406 5411 5416 5420 5422 5424 5425 5425 5424 5423 5422 5421 5422 5422 5424 5427 5430 5432 5434 5436 5437 5441 5440 5437 5433 5436 5437 5436 5434 5433 5433 5434 5436
5378 5382 5387 5391 5397 5402 5407 5411 5415 5418 5420 5422 5422 5422 5421 5421 5421 5422 5423 5424 5427 5429 5431 5431 5432 5434 5434 5435 5432 5428 5428 5430 5433 5432 5430 5429 5429 5429
5375 5380 5384 5389 5393 5398 5402 5406 5410 5413 5416 5418 5419 5419 5420 5420 5421 5422 5423 5424 5425 5427 5428 5428 5430 5432 5431 5429 5424 5422 5421 5424 5426 5428 5430 5432 5430 5429
5373 5378 5383 5387 5391 5394 5398 5402 5406 5409 5411 5414 5416 5417 5419 5420 5421 5422 5423 5424 5425 5425 5425 5425 5426 5427 5425 5424 5420 5418 5418 5420 5422 5425 5427 5433 5436 5436